Date String (YYYY-MM-DD hh:mm:ss) UTC,Instrument flags,Ambient pressure (hPa),Sample flow (lpm),Bypass flow (lpm),Sample temperature (°C),Ambient temperature (°C),ASC tube jacket temperature (°C),LED temperature (°C),Box temperature (°C),Sample RH (%),Span deviation,Mass concentration (μg/m³),Mass concentration (μg/m³),Mass concentration (μg/m³)
DateTimeUTC,F1_M11,P_M11,Q1_M11,Q2_M11,T1_M11,T2_M11,T3_M11,T4_M11,T5_M11,U1_M11,ZSPAN_M11,X0_M11,X2_M11,X1_M11
2022-09-17 03:00:00,,0824.6,4.99,0.00,30.1,28.3,00.0,38.8,31.8,16.7,0000.0,0002.72,0002.11,0001.84
2022-09-17 03:01:00,,0824.7,5.01,0.00,30.1,28.4,00.0,38.8,31.9,16.8,0000.0,0002.84,0002.16,0001.86
2022-09-17 03:02:00,,0824.6,4.99,0.00,30.1,28.5,00.0,38.8,31.9,16.8,0000.0,0002.89,0002.18,0001.88
2022-09-17 03:03:00,,0824.6,5.01,0.00,30.1,28.6,00.0,38.8,31.9,16.8,0000.0,0002.85,0002.20,0001.91
2022-09-17 03:04:00,,0824.7,5.00,0.00,30.1,28.7,00.0,38.8,31.9,16.7,0000.0,0002.87,0002.21,0001.93
2022-09-17 03:05:00,,0824.7,4.99,0.00,30.1,28.8,00.0,38.8,32.0,16.8,0000.0,0002.88,0002.22,0001.93
2022-09-17 03:06:00,,0824.7,5.01,0.00,30.1,28.9,00.0,38.8,32.0,16.8,0000.0,0002.86,0002.22,0001.95
2022-09-17 03:07:00,,0824.7,4.98,0.00,30.2,28.9,00.0,38.8,32.0,16.9,0000.0,0003.07,0002.24,0001.98
2022-09-17 03:08:00,,0824.8,5.02,0.00,30.2,29.0,00.0,38.8,32.0,17.0,0000.0,0003.12,0002.28,0002.00
2022-09-17 03:09:00,,0824.7,5.00,0.00,30.2,29.0,00.0,38.9,32.1,17.0,0000.0,0003.26,0002.34,0002.04
2022-09-17 03:10:00,,0824.7,4.99,0.00,30.2,29.0,00.0,38.9,32.1,17.1,0000.0,0003.61,0002.37,0002.06
2022-09-17 03:11:00,,0824.6,5.01,0.00,30.3,29.1,00.0,38.9,32.1,17.2,0000.0,0004.23,0002.41,0002.08
2022-09-17 03:12:00,,0824.7,4.99,0.00,30.3,29.0,00.0,38.9,32.1,17.3,0000.0,0004.97,0002.42,0002.11
2022-09-17 03:13:00,,0824.5,5.01,0.00,30.3,27.8,00.0,38.9,32.1,17.5,0000.0,0005.19,0002.46,0002.13
2022-09-17 03:14:00,,0824.5,5.01,0.00,30.2,27.0,00.0,38.9,32.0,17.5,0000.0,0005.35,0002.50,0002.17
2022-09-17 03:15:00,,0824.4,4.99,0.00,30.2,27.0,00.0,38.8,31.9,17.5,0000.0,0005.43,0002.56,0002.21
2022-09-17 03:16:00,,0824.4,4.99,0.00,30.1,27.2,00.0,38.8,31.7,17.7,0000.0,0005.51,0002.62,0002.26
2022-09-17 03:17:00,,0824.4,5.01,0.00,30.0,27.5,00.0,38.8,31.7,17.7,0000.0,0005.50,0002.65,0002.30
2022-09-17 03:18:00,,0824.5,5.00,0.00,30.0,27.8,00.0,38.8,31.7,17.7,0000.0,0005.36,0002.70,0002.33
2022-09-17 03:19:00,,0824.4,5.01,0.00,30.0,28.0,00.0,38.8,31.7,17.8,0000.0,0005.79,0002.73,0002.38
2022-09-17 03:20:00,,0824.5,4.98,0.00,30.0,28.2,00.0,38.7,31.7,17.9,0000.0,0006.58,0002.74,0002.41
2022-09-17 03:21:00,,0824.4,5.01,0.00,30.0,28.3,00.0,38.8,31.8,17.8,0000.0,0006.41,0002.78,0002.43
2022-09-17 03:22:00,,0824.4,4.99,0.00,30.0,28.4,00.0,38.7,31.8,17.9,0000.0,0005.82,0002.79,0002.46
2022-09-17 03:23:00,,0824.4,5.01,0.00,30.0,28.5,00.0,38.8,31.8,17.8,0000.0,0005.40,0002.82,0002.47
2022-09-17 03:24:00,,0824.4,4.99,0.00,30.0,28.6,00.0,38.8,31.9,17.7,0000.0,0004.86,0002.84,0002.48
2022-09-17 03:25:00,,0824.4,4.99,0.00,30.0,28.7,00.0,38.8,31.9,17.8,0000.0,0004.78,0002.85,0002.49
2022-09-17 03:26:00,,0824.4,5.01,0.00,30.1,28.7,00.0,38.8,31.9,17.8,0000.0,0004.71,0002.84,0002.49
2022-09-17 03:27:00,,0824.4,5.00,0.00,30.1,28.8,00.0,38.8,31.9,17.8,0000.0,0004.65,0002.82,0002.49
2022-09-17 03:28:00,,0824.6,5.00,0.00,30.1,28.8,00.0,38.8,32.0,17.7,0000.0,0004.65,0002.82,0002.49
2022-09-17 03:29:00,,0824.5,5.00,0.00,30.1,28.9,00.0,38.8,32.0,17.4,0000.0,0004.62,0002.79,0002.48
2022-09-17 03:30:00,,0824.4,4.99,0.00,30.2,28.9,00.0,38.8,32.0,17.2,0000.0,0004.29,0002.76,0002.45
2022-09-17 03:31:00,,0824.4,5.01,0.00,30.2,29.0,00.0,38.9,32.0,17.2,0000.0,0003.24,0002.72,0002.43
2022-09-17 03:32:00,,0824.5,4.99,0.00,30.2,29.0,00.0,38.9,32.0,17.5,0000.0,0003.14,0002.69,0002.43
2022-09-17 03:33:00,,0824.4,4.99,0.00,30.2,29.0,00.0,38.9,32.1,17.6,0000.0,0003.05,0002.64,0002.42
2022-09-17 03:34:00,,0824.4,5.01,0.00,30.2,29.0,00.0,38.9,32.1,17.7,0000.0,0003.09,0002.65,0002.42
2022-09-17 03:35:00,,0824.4,4.99,0.00,30.3,29.1,00.0,38.9,32.1,17.7,0000.0,0003.09,0002.65,0002.42
2022-09-17 03:36:00,,0824.4,5.01,0.00,30.3,29.1,00.0,38.9,32.1,17.6,0000.0,0003.47,0002.65,0002.40
2022-09-17 03:37:00,,0824.5,5.00,0.00,30.3,29.1,00.0,39.0,32.2,17.5,0000.0,0006.34,0002.66,0002.39
2022-09-17 03:38:00,,0824.4,5.01,0.00,30.3,29.1,00.0,39.0,32.2,17.5,0000.0,0006.60,0002.67,0002.39
2022-09-17 03:39:00,,0824.5,5.00,0.00,30.3,29.1,00.0,39.0,32.2,17.3,0000.0,0006.75,0002.68,0002.38
2022-09-17 03:40:00,,0824.4,5.01,0.00,30.4,28.8,00.0,39.0,32.2,17.2,0000.0,0006.75,0002.66,0002.35
2022-09-17 03:41:00,,0824.4,4.99,0.00,30.4,27.4,00.0,39.0,32.1,16.9,0000.0,0006.77,0002.65,0002.32
2022-09-17 03:42:00,,0824.4,5.00,0.00,30.3,26.8,00.0,38.9,32.1,17.0,0000.0,0006.77,0002.64,0002.30
2022-09-17 03:43:00,,0824.4,5.00,0.00,30.2,27.0,00.0,38.9,31.9,17.2,0000.0,0006.77,0002.63,0002.28
2022-09-17 03:44:00,,0824.4,5.01,0.00,30.2,27.3,00.0,38.9,31.8,17.6,0000.0,0006.73,0002.62,0002.27
2022-09-17 03:45:00,,0824.3,5.01,0.00,30.1,27.6,00.0,38.9,31.7,17.5,0000.0,0006.75,0002.60,0002.24
2022-09-17 03:46:00,,0824.3,5.01,0.00,30.1,27.8,00.0,38.8,31.8,17.5,0000.0,0006.70,0002.56,0002.21
2022-09-17 03:47:00,,0824.3,4.98,0.00,30.1,28.0,00.0,38.8,31.8,17.6,0000.0,0006.47,0002.52,0002.19
2022-09-17 03:48:00,,0824.2,5.00,0.00,30.1,28.2,00.0,38.8,31.8,17.6,0000.0,0003.61,0002.48,0002.15
2022-09-17 03:49:00,,0824.2,5.01,0.00,30.1,28.3,00.0,38.8,31.8,17.4,0000.0,0003.29,0002.42,0002.11
2022-09-17 03:50:00,,0824.2,4.99,0.00,30.1,28.4,00.0,38.8,31.8,17.3,0000.0,0003.03,0002.36,0002.08
2022-09-17 03:51:00,,0824.2,5.00,0.00,30.1,28.5,00.0,38.8,31.9,17.4,0000.0,0003.07,0002.35,0002.06
2022-09-17 03:52:00,,0824.2,5.01,0.00,30.1,28.6,00.0,38.8,31.9,17.3,0000.0,0003.07,0002.33,0002.05
2022-09-17 03:53:00,,0824.3,4.99,0.00,30.1,28.7,00.0,38.8,31.9,17.3,0000.0,0003.06,0002.32,0002.04
2022-09-17 03:54:00,,0824.3,5.00,0.00,30.1,28.7,00.0,38.8,31.9,17.2,0000.0,0003.08,0002.30,0002.02
2022-09-17 03:55:00,,0824.2,5.02,0.00,30.1,28.8,00.0,38.8,32.0,17.2,0000.0,0003.09,0002.28,0001.99
2022-09-17 03:56:00,,0824.2,4.99,0.00,30.1,28.8,00.0,38.8,32.0,17.1,0000.0,0003.00,0002.23,0001.95
2022-09-17 03:57:00,,0824.2,5.00,0.00,30.1,28.8,00.0,38.9,32.0,17.1,0000.0,0002.92,0002.17,0001.92
2022-09-17 03:58:00,,0824.2,5.01,0.00,30.2,28.9,00.0,38.9,32.0,17.0,0000.0,0002.86,0002.14,0001.88
2022-09-17 03:59:00,,0824.3,4.99,0.00,30.2,28.9,00.0,38.9,32.0,16.9,0000.0,0002.86,0002.12,0001.85
